Location: Newark
(26.7500°S, 133.2500°E)
Time: 08:37:50
(UTC+00:00)

ISS - Visible Passes

Search period start: 09 December 2019 00:00
Search period end: 19 December 2019 00:00
Orbit: 411 x 421 km, 51.6° (Epoch: 09 December)

Date Brightness Start Highest point End Pass type
(mag) Time Alt. Az. Time Alt. Az. Time Alt. Az.
14 Dec -3.9 11:33:33 10° NW 11:36:57 85° NE 11:40:22 10° SE visible
15 Dec -3.2 10:45:20 10° NNW 10:48:30 37° NE 10:51:42 10° ESE visible
15 Dec -0.4 12:23:24 10° WSW 12:25:20 14° SW 12:27:17 10° S visible
15 Dec -0.5 18:57:17 10° S 18:59:39 17° SE 19:01:58 10° E visible
16 Dec -1.3 11:33:48 10° W 11:36:40 25° SW 11:39:33 10° SSE visible
16 Dec 0.1 18:10:43 10° SSE 18:10:55 10° SE 18:11:08 10° SE visible
17 Dec -2.6 10:44:46 10° WNW 10:48:04 49° SW 10:51:25 10° SSE visible
17 Dec -3.1 18:56:04 10° SSW 18:59:25 58° SE 19:02:44 10° NE visible
18 Dec -1.6 18:07:50 10° SSW 18:10:50 28° SE 18:13:48 10° ENE visible
